Zurück zum Katalog

STARLINK-31981

AktivKommunikationVLEO
NORAD 60035·PAYLOAD·🇺🇸 United States

Gestartet Jun 8, 2024 von Cape Canaveral Space Force Station

Loading…

Nächste Überflüge (nächste 24 Stunden)

TLE

AktuellSource: CelesTrak SupGP

Epoche: Sep 14, 2026, 22:38 UTC

1 60035C 24111V   26257.94354167  .00055844  00000+0  16503-2 0  2573
2 60035  53.1566 275.5170 0001117  90.0618 275.9161 15.34355595    10

Verfolge STARLINK-31981 in Echtzeit mit AllMySat

Download on the App Store